Hourly Data Report for September 22, 2017

All times are specified in Local Standard Time (LST). Add 1 hour to adjust for Daylight Saving Time where and when it is observed.

FREDERICTON
NEW BRUNSWICK

45°52'08.000" N
66°32'14.000" W
20.70 m
8101505
71700
YFC

Related Data

No related data is available for this station

Download Data

Hourly Data (September 2017)
Hourly Data Report for September 22, 2017
Temp Definition
°C
Dew Point Temp Definition
°C
Rel Hum Definition
%
Wind Dir Definition
10's deg

Wind Spd Definition
km/h
Visibility Definition
km
Stn Press Definition
kPa
Hmdx Definition


Wind Chill Definition


Weather Definition


TIME
00:00 Legend Double Dagger 7.6 5.7 87 4 5 16.1 102.06     LegendNANA
01:00 Legend Double Dagger 8.1 6.2 88 2 8 16.1 102.07     LegendNANA
02:00 Legend Double Dagger 7.1 6.2 94 35 13 16.1 102.06     LegendNANA
03:00 Legend Double Dagger 5.3 4.7 96   0 16.1 102.05     LegendNANA
04:00 Legend Double Dagger 5.0 4.7 98   0 16.1 102.03     LegendNANA
05:00 Legend Double Dagger 4.8 4.4 97 32 9 16.1 102.03     LegendNANA
06:00 Legend Double Dagger 3.6 3.3 98 36 5 16.1 102.04     LegendNANA
07:00 Legend Double Dagger 3.9 3.6 98 LegendMM 4 16.1 102.09     LegendNANA
08:00 Legend Double Dagger 9.5 8.1 91 LegendMM 4 16.1 102.11     LegendNANA
09:00 Legend Double Dagger 11.3 8.3 82 6 5 16.1 102.10     LegendNANA
10:00 Legend Double Dagger 14.3 9.8 74 35 5 16.1 102.06     LegendNANA
11:00 Legend Double Dagger 17.4 10.5 64 1 8 16.1 102.00     LegendNANA
12:00 Legend Double Dagger 19.5 8.4 48 7 9 16.1 101.93     LegendNANA
13:00 Legend Double Dagger 20.9 8.8 45 8 9 16.1 101.86     LegendNANA
14:00 Legend Double Dagger 21.8 5.3 34 7 8 16.1 101.80     LegendNANA
15:00 Legend Double Dagger 22.5 5.2 32 11 9 16.1 101.74     LegendNANA
16:00 Legend Double Dagger 22.8 3.4 28 9 9 16.1 101.68     LegendNANA
17:00 Legend Double Dagger 22.4 5.8 34 10 5 16.1 101.65     LegendNANA
18:00 Legend Double Dagger 19.5 7.8 46 13 8 16.1 101.65     LegendNANA
19:00 Legend Double Dagger 13.4 9.5 77   0 16.1 101.64     LegendNANA
20:00 Legend Double Dagger 11.3 8.4 82 23 4 16.1 101.64     LegendNANA
21:00 Legend Double Dagger 9.9 8.0 88   0 16.1 101.59     LegendNANA
22:00 Legend Double Dagger 9.1 7.8 91   0 16.1 101.63     LegendNANA
23:00 Legend Double Dagger 6.9 6.3 96 21 5 16.1 101.60     LegendNANA

Notes on Data Quality.

Legend

  • E = Estimated
  • M = Missing
  • NA = Not Available
  • ‡ = Partner data that is not subject to review by the National Climate Archives
Date modified: